Time,TemperatureF,DewpointF,PressureIn,WindDirection,WindDirectionDegrees,WindSpeedMPH,WindSpeedGustMPH,Humidity,HourlyPrecipIn,Conditions,Clouds,dailyrainin,SolarRadiationWatts/m^2,SoftwareType,DateUTC
2013-03-30 00:09:00,38.9,32.3,29.96,West,269,0.0,0.0,77,0.00,CLR,SCT,0.00,0.0,WeatherDisplay:10.37,2013-03-30 04:09:00,
2013-03-30 00:21:00,38.4,31.8,29.96,SW,231,0.0,0.0,77,0.00,SCT,SCT,0.00,0.0,WeatherDisplay:10.37,2013-03-30 04:21:00,
2013-03-30 00:29:00,38.1,31.9,29.96,SW,225,0.0,0.0,78,0.00,SCT,SCT,0.00,0.0,WeatherDisplay:10.37,2013-03-30 04:29:00,
2013-03-30 00:50:00,38.1,31.9,29.97,SW,225,0.0,0.0,78,0.00,SCT,SCT,0.00,0.0,WeatherDisplay:10.37,2013-03-30 04:50:00,
2013-03-30 00:59:00,38.3,32.4,29.97,SW,225,0.0,0.0,79,0.00,CLR,SCT,0.00,0.0,WeatherDisplay:10.37,2013-03-30 04:59:00,
2013-03-30 01:29:00,38.5,32.8,29.96,SW,225,0.0,0.0,80,0.00,CLR,SCT,0.00,0.0,WeatherDisplay:10.37,2013-03-30 05:29:00,
2013-03-30 01:50:00,38.3,32.7,29.97,SW,225,0.0,0.0,80,0.00,CLR,SCT,0.00,0.0,WeatherDisplay:10.37,2013-03-30 05:50:00,
2013-03-30 01:59:00,38.4,32.8,29.97,SW,225,0.0,0.0,80,0.00,CLR,SCT,0.00,0.0,WeatherDisplay:10.37,2013-03-30 05:59:00,
2013-03-30 02:29:00,37.9,32.6,29.96,West,274,0.0,2.0,81,0.00,CLR,SCT,0.00,0.0,WeatherDisplay:10.37,2013-03-30 06:29:00,
2013-03-30 02:44:00,37.6,32.6,29.96,WNW,302,0.0,2.0,82,0.00,CLR,SCT,0.00,0.0,WeatherDisplay:10.37,2013-03-30 06:44:00,
2013-03-30 02:49:00,37.1,32.5,29.96,NW,322,0.0,1.0,83,0.00,CLR,SCT,0.00,0.0,WeatherDisplay:10.37,2013-03-30 06:49:00,
2013-03-30 02:54:00,37.1,32.4,29.96,NNW,327,0.0,1.0,83,0.00,CLR,SCT,0.00,0.0,WeatherDisplay:10.37,2013-03-30 06:54:00,
2013-03-30 03:08:00,37.2,32.8,29.96,West,269,0.0,1.0,84,0.00,CLR,SCT,0.00,0.0,WeatherDisplay:10.37,2013-03-30 07:08:00,
2013-03-30 03:21:00,37.0,32.6,29.96,West,275,0.0,1.0,84,0.00,CLR,SCT,0.00,0.0,WeatherDisplay:10.37,2013-03-30 07:21:00,
2013-03-30 03:29:00,36.6,32.2,29.96,NW,319,0.0,1.0,84,0.00,CLR,SCT,0.00,0.0,WeatherDisplay:10.37,2013-03-30 07:29:00,
2013-03-30 04:02:00,35.3,31.6,29.96,NE,47,0.0,1.0,86,0.00,CLR,SCT,0.00,0.0,WeatherDisplay:10.37,2013-03-30 08:02:00,
2013-03-30 04:26:00,34.8,31.3,29.96,North,351,0.0,2.0,87,0.00,CLR,SCT,0.00,0.0,WeatherDisplay:10.37,2013-03-30 08:26:00,
2013-03-30 04:44:00,33.8,30.6,29.95,NW,322,0.0,1.0,88,0.00,CLR,SCT,0.00,0.0,WeatherDisplay:10.37,2013-03-30 08:44:00,
2013-03-30 04:50:00,33.7,30.6,29.96,NW,318,0.0,0.0,88,0.00,CLR,SCT,0.00,0.0,WeatherDisplay:10.37,2013-03-30 08:50:00,
2013-03-30 04:59:00,33.6,30.4,29.96,NW,318,0.0,0.0,88,0.00,FEW,SCT,0.00,0.0,WeatherDisplay:10.37,2013-03-30 08:59:00,
2013-03-30 05:20:00,33.9,31.0,29.95,NW,323,0.0,2.0,89,0.00,FEW,SCT,0.00,0.0,WeatherDisplay:10.37,2013-03-30 09:20:00,
2013-03-30 05:29:00,34.1,31.2,29.95,NW,320,0.0,1.0,89,0.00,BKN,SCT,0.00,0.0,WeatherDisplay:10.37,2013-03-30 09:29:00,
2013-03-30 05:50:00,35.1,32.4,29.96,NNE,22,0.0,1.0,90,0.00,BKN,SCT,0.00,0.0,WeatherDisplay:10.37,2013-03-30 09:50:00,
2013-03-30 05:55:00,35.2,32.6,29.96,NE,47,0.0,1.0,90,0.00,BKN,SCT,0.00,0.0,WeatherDisplay:10.37,2013-03-30 09:55:00,
2013-03-30 06:10:00,35.2,32.3,29.96,ENE,77,0.0,1.0,89,0.00,BKN,SCT,0.00,0.0,WeatherDisplay:10.37,2013-03-30 10:10:00,
2013-03-30 06:22:00,35.2,32.3,29.96,East,89,0.0,1.0,89,0.00,BKN,SCT,0.00,0.0,WeatherDisplay:10.37,2013-03-30 10:22:00,
2013-03-30 06:37:00,35.2,32.3,29.96,East,90,0.0,1.0,89,0.00,SCT,SCT,0.00,0.0,WeatherDisplay:10.37,2013-03-30 10:37:00,
2013-03-30 07:10:00,35.6,32.1,29.97,East,90,0.0,1.0,87,0.00,SCT,SCT,0.00,0.0,WeatherDisplay:10.37,2013-03-30 11:10:00,
2013-03-30 07:23:00,36.9,33.1,29.97,ENE,77,0.0,2.0,86,0.00,CLR,SCT,0.00,0.0,WeatherDisplay:10.37,2013-03-30 11:23:00,
2013-03-30 07:45:00,40.9,35.2,29.98,North,9,1.0,5.0,80,0.00,CLR,SCT,0.00,0.0,WeatherDisplay:10.37,2013-03-30 11:45:00,
2013-03-30 07:51:00,40.8,34.8,29.98,North,349,1.0,5.0,79,0.00,CLR,SCT,0.00,0.0,WeatherDisplay:10.37,2013-03-30 11:51:00,
2013-03-30 08:00:00,40.6,34.0,29.98,NW,326,1.0,5.0,77,0.00,CLR,SCT,0.00,0.0,WeatherDisplay:10.37,2013-03-30 12:00:00,
2013-03-30 08:16:00,41.1,33.4,29.98,NNW,327,0.0,3.0,74,0.00,CLR,SCT,0.00,0.0,WeatherDisplay:10.37,2013-03-30 12:16:00,
2013-03-30 08:45:00,45.8,35.1,29.98,SE,146,5.0,13.0,66,0.00,CLR,SCT,0.00,0.0,WeatherDisplay:10.37,2013-03-30 12:45:00,
2013-03-30 08:51:00,45.7,32.6,29.98,SE,126,5.0,13.0,60,0.00,CLR,SCT,0.00,0.0,WeatherDisplay:10.37,2013-03-30 12:51:00,
2013-03-30 09:00:00,45.6,30.8,29.98,East,95,6.0,13.0,56,0.00,CLR,SCT,0.00,0.0,WeatherDisplay:10.37,2013-03-30 13:00:00,
2013-03-30 09:10:00,45.7,30.5,29.99,NE,55,6.0,13.0,55,0.00,CLR,SCT,0.00,0.0,WeatherDisplay:10.37,2013-03-30 13:10:00,
2013-03-30 09:21:00,47.2,30.9,29.99,NNE,25,3.0,17.0,53,0.00,CLR,SCT,0.00,0.0,WeatherDisplay:10.37,2013-03-30 13:21:00,
2013-03-30 10:26:00,52.3,28.0,29.98,North,351,3.0,17.0,39,0.00,CLR,SCT,0.00,0.0,WeatherDisplay:10.37,2013-03-30 14:26:00,
2013-03-30 10:47:00,54.9,28.5,29.98,North,8,2.0,9.0,36,0.00,CLR,SCT,0.00,0.0,WeatherDisplay:10.37,2013-03-30 14:47:00,
2013-03-30 10:53:00,55.1,28.6,29.99,North,7,2.0,9.0,36,0.00,CLR,SCT,0.00,0.0,WeatherDisplay:10.37,2013-03-30 14:53:00,
2013-03-30 11:38:00,57.4,27.0,29.97,North,352,6.0,11.0,31,0.00,CLR,SCT,0.00,0.0,WeatherDisplay:10.37,2013-03-30 15:38:00,
2013-03-30 12:10:00,59.8,25.7,29.96,NNW,337,3.0,10.0,27,0.00,CLR,SCT,0.00,0.0,WeatherDisplay:10.37,2013-03-30 16:10:00,
2013-03-30 12:15:00,60.0,25.9,29.96,NNW,340,3.0,8.0,27,0.00,CLR,SCT,0.00,0.0,WeatherDisplay:10.37,2013-03-30 16:15:00,
2013-03-30 12:38:00,61.4,24.2,29.96,North,357,2.0,8.0,24,0.00,CLR,SCT,0.00,0.0,WeatherDisplay:10.37,2013-03-30 16:38:00,
2013-03-30 13:26:00,62.3,22.9,29.95,WNW,301,2.0,11.0,22,0.00,CLR,SCT,0.00,0.0,WeatherDisplay:10.37,2013-03-30 17:26:00,
2013-03-30 13:38:00,62.4,21.9,29.94,WNW,292,5.0,10.0,21,0.00,CLR,SCT,0.00,0.0,WeatherDisplay:10.37,2013-03-30 17:38:00,
2013-03-30 14:12:00,62.0,21.6,29.93,NW,313,6.0,12.0,21,0.00,CLR,SCT,0.00,0.0,WeatherDisplay:10.37,2013-03-30 18:12:00,
2013-03-30 14:25:00,61.7,21.3,29.93,NNW,334,6.0,12.0,21,0.00,CLR,SCT,0.00,0.0,WeatherDisplay:10.37,2013-03-30 18:25:00,
2013-03-30 14:40:00,61.9,23.7,29.92,North,0,3.0,10.0,23,0.00,CLR,SCT,0.00,0.0,WeatherDisplay:10.37,2013-03-30 18:40:00,
2013-03-30 14:52:00,61.6,20.1,29.92,North,4,2.0,7.0,20,0.00,CLR,SCT,0.00,0.0,WeatherDisplay:10.37,2013-03-30 18:52:00,
2013-03-30 15:10:00,60.9,20.7,29.92,NNE,16,2.0,6.0,21,0.00,CLR,SCT,0.00,0.0,WeatherDisplay:10.37,2013-03-30 19:10:00,
2013-03-30 15:22:00,60.7,21.6,29.92,WNW,294,3.0,7.0,22,0.00,CLR,SCT,0.00,0.0,WeatherDisplay:10.37,2013-03-30 19:22:00,
2013-03-30 15:51:00,59.7,21.8,29.91,WNW,283,2.0,8.0,23,0.00,CLR,SCT,0.00,0.0,WeatherDisplay:10.37,2013-03-30 19:51:00,
2013-03-30 16:11:00,56.7,20.2,29.91,WNW,283,1.0,8.0,24,0.00,SCT,SCT,0.00,0.0,WeatherDisplay:10.37,2013-03-30 20:11:00,
2013-03-30 16:17:00,56.7,20.3,29.91,West,274,1.0,5.0,24,0.00,SCT,SCT,0.00,0.0,WeatherDisplay:10.37,2013-03-30 20:17:00,
2013-03-30 16:27:00,56.8,20.4,29.91,WSW,238,1.0,5.0,24,0.00,SCT,SCT,0.00,0.0,WeatherDisplay:10.37,2013-03-30 20:27:00,
2013-03-30 16:32:00,56.8,20.4,29.91,SW,222,1.0,5.0,24,0.00,SCT,SCT,0.00,0.0,WeatherDisplay:10.37,2013-03-30 20:32:00,
2013-03-30 16:46:00,56.2,19.9,29.91,West,270,5.0,9.0,24,0.00,SCT,SCT,0.00,0.0,WeatherDisplay:10.37,2013-03-30 20:46:00,
2013-03-30 16:52:00,56.2,19.8,29.91,North,356,6.0,9.0,24,0.00,SCT,SCT,0.00,0.0,WeatherDisplay:10.37,2013-03-30 20:52:00,
2013-03-30 17:15:00,56.0,19.6,29.91,NNW,342,2.0,9.0,24,0.00,SCT,SCT,0.00,0.0,WeatherDisplay:10.37,2013-03-30 21:15:00,
2013-03-30 17:26:00,55.6,19.4,29.91,NNW,347,3.0,9.0,24,0.00,SCT,SCT,0.00,0.0,WeatherDisplay:10.37,2013-03-30 21:26:00,
2013-03-30 17:40:00,54.8,18.6,29.91,North,352,3.0,9.0,24,0.00,SCT,SCT,0.00,0.0,WeatherDisplay:10.37,2013-03-30 21:40:00,
2013-03-30 17:52:00,54.2,18.2,29.92,NNE,20,2.0,5.0,24,0.00,SCT,SCT,0.00,0.0,WeatherDisplay:10.37,2013-03-30 21:52:00,
2013-03-30 18:51:00,51.9,18.0,29.94,NNE,14,1.0,8.0,26,0.00,FEW,SCT,0.00,0.0,WeatherDisplay:10.37,2013-03-30 22:51:00,
2013-03-30 19:00:00,51.8,18.0,29.94,NNE,21,1.0,3.0,26,0.00,SCT,SCT,0.00,0.0,WeatherDisplay:10.37,2013-03-30 23:00:00,
2013-03-30 19:15:00,50.2,18.3,29.95,NNE,14,1.0,3.0,28,0.00,SCT,SCT,0.00,0.0,WeatherDisplay:10.37,2013-03-30 23:15:00,
2013-03-30 19:26:00,49.6,19.4,29.95,North,1,1.0,2.0,30,0.00,SCT,SCT,0.00,0.0,WeatherDisplay:10.37,2013-03-30 23:26:00,
2013-03-30 19:40:00,48.4,19.1,29.95,West,260,1.0,2.0,31,0.00,SCT,SCT,0.00,0.0,WeatherDisplay:10.37,2013-03-30 23:40:00,
2013-03-30 19:46:00,48.3,19.0,29.95,WSW,253,1.0,1.0,31,0.00,SCT,SCT,0.00,0.0,WeatherDisplay:10.37,2013-03-30 23:46:00,
2013-03-30 19:55:00,46.1,21.8,29.96,SW,225,0.0,2.0,38,0.00,SCT,SCT,0.00,0.0,WeatherDisplay:10.37,2013-03-30 23:55:00,
2013-03-30 20:02:00,45.5,20.7,29.96,SW,225,1.0,2.0,37,0.00,SCT,SCT,0.00,0.0,WeatherDisplay:10.37,2013-03-31 00:02:00,
2013-03-30 20:11:00,45.1,20.4,29.97,SW,225,0.0,1.0,37,0.00,SCT,SCT,0.00,0.0,WeatherDisplay:10.37,2013-03-31 00:11:00,
2013-03-30 20:17:00,44.8,20.1,29.97,SW,225,0.0,1.0,37,0.00,SCT,SCT,0.00,0.0,WeatherDisplay:10.37,2013-03-31 00:17:00,
2013-03-30 20:42:00,42.3,21.3,29.98,NW,316,0.0,1.0,43,0.00,FEW,SCT,0.00,0.0,WeatherDisplay:10.37,2013-03-31 00:42:00,
2013-03-30 20:47:00,42.1,21.8,29.98,North,353,0.0,1.0,44,0.00,FEW,SCT,0.00,0.0,WeatherDisplay:10.37,2013-03-31 00:47:00,
2013-03-30 20:57:00,41.7,21.4,29.99,North,0,0.0,1.0,44,0.00,CLR,SCT,0.00,0.0,WeatherDisplay:10.37,2013-03-31 00:57:00,
2013-03-30 21:06:00,40.8,17.7,29.99,North,0,0.0,0.0,39,0.00,CLR,SCT,0.00,0.0,WeatherDisplay:10.37,2013-03-31 01:06:00,
2013-03-30 21:11:00,40.8,17.7,29.99,North,0,0.0,0.0,39,0.00,CLR,SCT,0.00,0.0,WeatherDisplay:10.37,2013-03-31 01:11:00,
2013-03-30 21:22:00,39.5,18.2,29.99,North,0,0.0,1.0,42,0.00,CLR,SCT,0.00,0.0,WeatherDisplay:10.37,2013-03-31 01:22:00,
2013-03-30 21:27:00,39.1,17.3,30.00,North,0,0.0,0.0,41,0.00,CLR,SCT,0.00,0.0,WeatherDisplay:10.37,2013-03-31 01:27:00,
2013-03-30 21:32:00,39.0,17.3,29.99,North,0,0.0,0.0,41,0.00,CLR,SCT,0.00,0.0,WeatherDisplay:10.37,2013-03-31 01:32:00,
2013-03-30 21:48:00,37.7,16.1,30.00,North,0,0.0,0.0,41,0.00,CLR,SCT,0.00,0.0,WeatherDisplay:10.37,2013-03-31 01:48:00,
2013-03-30 21:56:00,37.4,16.4,30.01,North,0,0.0,0.0,42,0.00,CLR,SCT,0.00,0.0,WeatherDisplay:10.37,2013-03-31 01:56:00,
2013-03-30 22:07:00,37.0,16.6,30.00,North,0,0.0,0.0,43,0.00,CLR,SCT,0.00,0.0,WeatherDisplay:10.37,2013-03-31 02:07:00,
2013-03-30 22:33:00,36.3,16.4,30.00,NNW,338,0.0,1.0,44,0.00,CLR,SCT,0.00,0.0,WeatherDisplay:10.37,2013-03-31 02:33:00,
2013-03-30 22:42:00,35.7,16.4,30.00,North,0,0.0,1.0,45,0.00,CLR,SCT,0.00,0.0,WeatherDisplay:10.37,2013-03-31 02:42:00,
2013-03-30 22:47:00,35.4,16.7,30.00,North,0,0.0,1.0,46,0.00,CLR,SCT,0.00,0.0,WeatherDisplay:10.37,2013-03-31 02:47:00,
2013-03-30 22:56:00,34.9,16.7,30.00,North,0,0.0,0.0,47,0.00,SCT,SCT,0.00,0.0,WeatherDisplay:10.37,2013-03-31 02:56:00,
2013-03-30 23:01:00,34.5,16.3,30.00,North,0,0.0,0.0,47,0.00,SCT,SCT,0.00,0.0,WeatherDisplay:10.37,2013-03-31 03:01:00,
2013-03-30 23:11:00,34.3,18.1,30.00,North,0,0.0,1.0,51,0.00,CLR,SCT,0.00,0.0,WeatherDisplay:10.37,2013-03-31 03:11:00,
2013-03-30 23:21:00,34.1,19.2,30.01,NW,307,0.0,0.0,54,0.00,CLR,SCT,0.00,0.0,WeatherDisplay:10.37,2013-03-31 03:21:00,
2013-03-30 23:31:00,33.5,17.7,30.01,West,270,0.0,2.0,52,0.00,CLR,SCT,0.00,0.0,WeatherDisplay:10.37,2013-03-31 03:31:00,
2013-03-30 23:46:00,32.7,17.5,30.01,West,270,0.0,1.0,53,0.00,CLR,SCT,0.00,0.0,WeatherDisplay:10.37,2013-03-31 03:46:00,
2013-03-30 23:56:00,32.4,18.0,30.01,WNW,287,0.0,1.0,55,0.00,CLR,SCT,0.00,0.0,WeatherDisplay:10.37,2013-03-31 03:56:00,